Pagina principale
METAR-TAF:

METAR-TAF

Aeroporti :

Trevico, Italia

latitudine: 41-03N, longitudine: 015-14E, altezza: 1085 m

Osservazione

Il bollettino è stato emesso 3 ore e 26 minuti fa, alle 23:55 UTC
Vento 9 kt da sud/sud-est
Temperature 11°C
Umidità 87%
Pressione 1017 hPa
Visibilità minore di 50 m
nebbia

METAR: LIRT 182355Z 15009KT 0000 FG VV/// 11/09 Q1017 RMK MON INVIS VAL INVIS VIS MIN 0000

Ora: 05:21 (03:21 UTC)


TAF: mancante

Osservazioni e previsioni meteorologiche di più di 4000 aeroporti (messaggi METAR e TAF).

Le stazioni disponibili sono rappresentate dai dischi gialli e rossi sulla carta.

Puntare il mouse per vedere il nome della stazione.

Clicca sopra per visualizzare le osservazioni e previsioni meteorologiche.

Per cambiare la mappa : fare clic sui pulsanti verdi con una croce nera per ingrandire, il pulsante verde con un trattino per diminuire, o sulla freccia verde per le mappe adiacenti.


METAR-TAF: